Flag for Trinidad and Tobago Weather past 2 weeks in San Fernando, Trinidad and Tobago

Now
81 °F

Passing clouds.


Feels Like: 86 °F
Forecast: 79 / 88 °F
Wind: No wind

Location: Piarco International Airport - Trinidad

Current Time: Sep 15, 2014 at 9:30:41 PM

Latest Report: Sep 15, 2014 at 9:00 PM


Visibility: N/A

Pressure: 29.95 "Hg

Humidity: 84%

Dew point: 75 °F

Location of San FernandoLocation

Historic Weather in San Fernando — Graph

°F

San Fernando temperature yesterday

Maximum temperature yesterday: 91 °F (at 1:00 PM)
Minimum temperature yesterday: 77 °F (at 1:00 AM)
Average temperature yesterday: 83 °F

Past Weeks' High & Low Weather Summary

 TemperatureHumidityPressure
High93 °F (Sep 1, 1:00 PM)100% (Sep 4, 6:00 AM)30.01 "Hg (Sep 4, 6:00 AM)
Low75 °F (Sep 4, 4:00 AM)49% (Sep 1, 1:00 PM)29.80 "Hg (Sep 10, 5:00 PM)
Average82 °F79%29.90 "Hg
* Reported Aug 31 8:00 PM — Sep 15 8:00 PM, San Fernando, Weather by CustomWeather, © 2014

Note: Actual official high and low records may vary slightly from our data, if they occured in-between our weather recording intervals... More about our weather records

Advertising

San Fernando weather history for previous 24 hours

 ConditionsComfort  
Time TempWeatherWind HumidityBarometerVisibility
8:00 PM
Sep 15
81 °FPassing clouds.No wind84%29.95 "HgN/A
7:00 PM81 °FPassing clouds.No wind84%29.92 "HgN/A
6:00 PM82 °FPassing clouds.No wind74%29.89 "HgN/A
5:00 PM84 °FPassing clouds.No wind70%29.89 "HgN/A
4:00 PM82 °FScattered clouds.No wind74%29.89 "HgN/A
3:00 PM86 °FScattered clouds.13 mph66%29.92 "Hg6 mi
2:00 PM90 °FPassing clouds.14 mph59%29.89 "Hg4 mi
1:00 PM91 °FScattered clouds.10 mph56%29.92 "HgN/A
12:00 PM93 °FScattered clouds.12 mph53%29.95 "HgN/A
11:00 AM91 °FScattered clouds.14 mph59%29.98 "HgN/A
10:00 AM90 °FScattered clouds.13 mph63%29.98 "HgN/A
9:00 AM88 °FScattered clouds.13 mph66%29.98 "HgN/A
8:00 AM86 °FPassing clouds.12 mph75%29.95 "HgN/A
7:00 AM81 °FPassing clouds.No wind84%29.92 "HgN/A
6:00 AM77 °FPassing clouds.No wind94%29.92 "HgN/A
5:00 AM77 °FPassing clouds.5 mph94%29.92 "HgN/A
4:00 AM79 °FPassing clouds.5 mph89%29.89 "HgN/A
3:00 AM77 °FPassing clouds.No wind94%29.89 "HgN/A
2:00 AM79 °FPassing clouds.No wind89%29.92 "HgN/A
1:00 AM79 °FPassing clouds.No wind89%29.92 "HgN/A
12:00 AM79 °FPassing clouds.No wind89%29.92 "HgN/A
11:00 PM
Sep 14
79 °FPassing clouds.No wind89%29.95 "HgN/A
10:00 PM79 °FPassing clouds.No wind89%29.95 "HgN/A
9:00 PM81 °FPassing clouds.No wind84%29.95 "HgN/A
Weather by CustomWeather, © 2014

See weather overviewHow to use our weather pages